Regional Weather Roundup
Issued by NWS

Home | Current Version | Previous Version | Text Only | Print | Product List | Glossary Off
Versions: 1 2 3 4 5 6 7 8 9 10 11 12 13 14 15 16 17 18 19 20 21 22 23 24 25 26 27 28 29 30 31 32 33 34 35 36 37 38 39 40 41 42 43 44 45 46 47 48 49 50

000
ASUS45 KBOU 241707
RWRCO

WEATHER ROUNDUP FOR COLORADO
NATIONAL WEATHER SERVICE DENVER/BOULDER CO
1100 AM MDT FRI APR 24 2015

NOTE: "FAIR" INDICATES FEW OR NO CLOUDS BELOW 12000 FEET WITH NO
SIGNIFICANT WEATHER AND/OR OBSTRUCTIONS TO VISIBILITY.

COZ001>005-013-030-031-241800-
...NORTHWEST COLORADO...

CITY           SKY/WX    TMP DP  RH WIND       PRES   REMARKS
CRAIG          MOSUNNY   57  29  34 W7        29.77F
HAYDEN         MOSUNNY   54  25  32 NW5       29.78F
MEEKER         SUNNY     57  26  30 SW6       29.78F
MOUNT WERNER   NOT AVBL
STEAMBOAT SPGS MOSUNNY   52  26  37 CALM      29.79F
WALDEN         MOSUNNY   46  21  36 SW7       29.81F
$$

COZ006>008-011-241800-
...WEST CENTRAL VALLEYS...

CITY           SKY/WX    TMP DP  RH WIND       PRES   REMARKS
GRAND JUNCTION MOSUNNY   62  27  26 MISG      29.76S
MONTROSE       CLOUDY    58  25  28 N5        29.82F
EAGLE          MOSUNNY   54  27  35 CALM      29.81F
RIFLE          MOSUNNY   54  31  41 NW5       29.78F
DELTA          NOT AVBL
NUCLA          PTSUNNY   57  25  28 SW9G18    29.88S
$$

COZ017>023-064>068-241800-
...SOUTHWEST COLORADO...

CITY           SKY/WX    TMP DP  RH WIND       PRES   REMARKS
DURANGO        MOSUNNY   52  30  43 S9G17     29.89F
CORTEZ         PTSUNNY   59  27  29 S13G23    29.88S
PAGOSA SPRINGS PTSUNNY   45  33  62 S8        29.92S
TELLURIDE      PTSUNNY   43  18  36 W9        29.92S
WOLF CREEK PAS LGT SNOW  23  23 100 S12       30.01S WCI  12
$$

COZ009-010-012-014-032>034-037-058>063-241800-
...CENTRAL COLORADO...

CITY           SKY/WX    TMP DP  RH WIND       PRES   REMARKS
ASPEN          PTSUNNY   51  22  31 N12       29.82S
BUENA VISTA    PTSUNNY   51  21  31 S5        29.83S
COPPER MTN     NOT AVBL
BERTHOUD PASS  CLOUDY    27  18  69 N9G21     29.96R WCI  17
COTTONWOOD PAS PTSUNNY   45  16  31 SW8       29.88F
GUNNISON       MOSUNNY   46  27  46 SW3       29.89S
KREMMLING      MOSUNNY   54  25  32 CALM      29.81F
LEADVILLE      PTSUNNY   37  16  42 NW13      29.86F
SALIDA         PTSUNNY   55  21  27 CALM      29.88F
SUNLIGHT       CLOUDY    36  23  60 CALM      29.96S
WILKERSON PASS MOSUNNY   34  12  40 N3        29.94S
$$

COZ069>075-241800-
...SAN LUIS VALLEY/SANGRE DE CRISTO MOUNTAINS...

CITY           SKY/WX    TMP DP  RH WIND       PRES   REMARKS
ALAMOSA        MOSUNNY   52  22  30 VRB6      29.84F
LA VETA PASS   PTSUNNY   39  27  60 SW7G16    29.89F
SAGUACHE       MOSUNNY   52  25  35 NW12G17   29.84F
$$

COZ035-036-038>040-241800-
...NORTHERN COLORADO FRONT RANGE...

CITY           SKY/WX    TMP DP  RH WIND       PRES   REMARKS
DENVER INTL AP MOSUNNY   64  29  26 CALM      29.70F
DMNS CITY PARK   N/A     63  23  22 W2        29.69F
AURORA         PTSUNNY   62  27  26 VRB2      29.71F
FRONT RANGE AP MOSUNNY  N/A N/A N/A N6        29.72F
ERIE MUNI ARPT MOSUNNY   63  33  32 SE3       29.70F
BOULDER MUN AP MOSUNNY   61  32  33 E3        29.69F
CENTENNIAL     PTSUNNY   61  26  26 N9        29.72F
BROOMFIELD     MOSUNNY   63  27  25 NE7       29.71F
FORT COLLINS   MOSUNNY   61  36  39 SE6       29.70F
LONGMONT       MOSUNNY   66  32  28 E7        29.70F
$$

COZ041-046-047-076>085-087-088-241800-
...PIKES PEAK/PALMER DIVIDE AND SOUTHERN FOOTHILLS...

CITY           SKY/WX    TMP DP  RH WIND       PRES   REMARKS
COLO. SPRINGS  MOSUNNY   63  19  18 NW12      29.73F
A. F. ACADEMY  SUNNY     59  18  20 NE5       29.72F
ELLICOTT       SUNNY    N/A N/A N/A NE8       29.72F
FALCON         SUNNY     60  19  20 CALM      29.76F
FORT CARSON    SUNNY     62  28  26 VRB6      29.70F
LIMON          CLOUDY    61  32  33 N8        29.70F
MONUMENT HILL  SUNNY     55  23  28 N9        29.75F
TRINIDAD       MOSUNNY   65  25  22 VRB7      29.71F
$$

COZ042>045-048>051-090-091-241800-
...NORTHEAST COLORADO...

CITY           SKY/WX    TMP DP  RH WIND       PRES   REMARKS
GREELEY ARPT   SUNNY     61  37  41 CALM      29.70F
AKRON          MOSUNNY   66  40  38 N10       29.68F
BURLINGTON     MOSUNNY   66  45  46 VRB5      29.65F
WRAY           MOSUNNY   66  49  53 NW6       29.64F
STERLING       MOSUNNY   64  45  48 CALM      29.65F
HOLYOKE        MOSUNNY   64  50  59 NW9       29.65F
FORT MORGAN    MOSUNNY   64  34  32 W5        29.68F
$$

COZ086-089-092>099-241800-
...SOUTHEAST COLORADO...

CITY           SKY/WX    TMP DP  RH WIND       PRES   REMARKS
PUEBLO         MOSUNNY   63  35  35 NE6       29.68F
LA JUNTA       MOSUNNY   63  43  48 W8        29.67F
LAMAR          PTSUNNY   63  47  55 W6        29.64F
SPRINGFIELD      N/A     68  34  28 VRB6      29.67F
$$



USA.gov is the U.S. government's official web portal to all federal, state and local government web resources and services.